Flag for Brazil Weather past 2 weeks in Fortaleza, Ceará, Brazil

Now
81 °F

Broken clouds.


Feels Like: 85 °F
Forecast: 77 / 86 °F
Wind: 9 mph from East

Location: Fortaleza Aeropor-To


UV Index: 7 (High)

Visibility: N/A


Pressure: 29.89 "Hg

Humidity: 74%

Dew point: 72 °F

Location of FortalezaLocation

Historic Weather in Fortaleza

°F

Fortaleza temperature yesterday

Maximum temperature yesterday: 84 °F (at 2:00 PM)
Minimum temperature yesterday: 77 °F (at 6:00 AM)
Average temperature yesterday: 80 °F

Past Weeks' High & Low Weather Summary

 TemperatureHumidityPressure
High88 °F (Apr 14, 12:00 PM)100% (Apr 9, 8:00 AM)29.98 "Hg (Apr 9, 8:00 AM)
Low39 °F (Apr 9, 8:00 AM)40% (Apr 7, 8:00 AM)29.77 "Hg (Apr 14, 2:00 PM)
Average80 °F78%29.88 "Hg
* Reported Apr 2 10:00 AM — Apr 17 10:00 AM, Fortaleza, Weather by CustomWeather, © 2014

Note: Actual official high and low records may vary slightly from our data, if they occured in-between our weather recording intervals... More about our weather records

Advertising

Historic Weather Conditions — Data for Previous 24 hours

 ConditionsComfort  
Time TempWeatherWind HumidityBarometerVisibility
10:00 AM
Apr 17
81 °FBroken clouds.9 mph74%29.89 "HgN/A
9:00 AM81 °FPartly sunny.8 mph79%29.89 "HgN/A
8:00 AM79 °FScattered clouds.8 mph84%29.86 "HgN/A
7:00 AM77 °FScattered clouds.6 mph83%29.86 "HgN/A
6:00 AM75 °FPassing clouds.1 mph89%29.83 "HgN/A
5:00 AM75 °FPassing clouds.3 mph89%29.83 "HgN/A
4:00 AM75 °FPassing clouds.5 mph89%29.80 "HgN/A
3:00 AM73 °FLight rain. Passing clouds.5 mph94%29.80 "Hg4 mi
2:07 AM79 °FLight rain. Passing clouds.9 mph79%29.83 "Hg2 mi
2:00 AM79 °FPassing clouds.2 mph84%29.80 "HgN/A
1:00 AM79 °FPassing clouds.6 mph84%29.83 "HgN/A
12:00 AM79 °FPassing clouds.3 mph84%29.86 "HgN/A
11:00 PM
Apr 16
79 °FPassing clouds.5 mph84%29.86 "HgN/A
10:00 PM79 °FPassing clouds.6 mph84%29.86 "HgN/A
9:00 PM81 °FPassing clouds.7 mph79%29.86 "HgN/A
8:00 PM81 °FPassing clouds.7 mph79%29.86 "HgN/A
7:00 PM81 °FPartly cloudy.7 mph79%29.83 "HgN/A
6:00 PM81 °FPartly cloudy.7 mph74%29.83 "HgN/A
5:00 PM81 °FBroken clouds.9 mph79%29.83 "HgN/A
4:00 PM82 °FPartly sunny.10 mph74%29.80 "HgN/A
3:00 PM82 °FPartly sunny.13 mph70%29.80 "HgN/A
2:00 PM84 °FBroken clouds.6 mph62%29.83 "HgN/A
1:00 PM79 °FScattered showers. Partly sunny.12 mph70%N/AN/A
12:00 PM81 °FBroken clouds.5 mph79%29.86 "HgN/A
11:00 AM82 °FBroken clouds.12 mph70%29.89 "HgN/A
Weather by CustomWeather, © 2014

See weather overview